Find Starlink 11592

NORAD ID: 63560 Int'l Des: 2025-075 Owner: SPXS Country: US Constellation: starlink operational
LEOCIRCULAR

現在のビュー

3D地球を読み込み中...

About Starlink 11592

Starlink 11592 (NORAD 63560) is a starlink constellation satellite (v2 mini d2c) launched Apr 13, 2025 by SPXS of US. It operates in LEO, CIRCULAR orbit with a mass of 960.00 kg.

Starlink 11592について

説明を読み込み中...

次回通過

Passes for default location (London). Set your location on the main map for personalized predictions.

高度履歴

Loading altitude history...

軌道要素

1 63560U 25075N 26168.53768742 .00020036 00000-0 15908-3 0 9991
2 63560 42.9994 271.8105 0001083 254.5059 105.5689 15.70866974 68950
Epoch: Jun 17, 2026 • Age: 15 hours

現在のステータス

高度 355.9 km
速度 7.70 km/s
衛星直下点 3.28°N, 57.71°W
打ち上げ日 Apr 13, 2025
運用期間 1.1 years
タイプ internet

技術仕様

分類 Payload
質量 960.00 kg
乾燥質量 910.00 kg
総質量 960.00 kg
長さ 0.30 m
直径 4.10 m
スパン 29.00 m
形状 Box + pan
製造者 SPXS
バスタイプ Starlink V2MD
フェーズステータス In Orbit
所有者/国 SPXS/US

Most Searched